Flint, MI

3:57 PM EDT on April 25, 2017 (GMT -0400)
Bishop International

Weather History for KFNT - October, 2012

Change the Weather History Date:

Monday, October 22, 2012

  Actual Average Record
Temperature  
Mean Temperature 56 °F 48 °F  
Max Temperature 73 °F 57 °F 80 °F (1979)
Min Temperature 38 °F 38 °F 23 °F (1930)
Degree Days  
Heating Degree Days 9 18  
Month to date heating degree days 299 314  
Since 1 July heating degree days 473 524  
Cooling Degree Days 0 0  
Month to date cooling degree days 2 2  
Year to date cooling degree days 855 528  
Growing Degree Days 5 (Base 50)    
Moisture  
Dew Point 48 °F    
Average Humidity 73    
Maximum Humidity 92    
Minimum Humidity 53    
Precipitation  
Precipitation 0.36 in 0.08 in 1.85 in (1929)
Month to date precipitation 2.37 1.80  
Year to date precipitation 26.67 26.11  
Snow  
Snow 0.00 in 0.00 in 0.50 in (1987)
Month to date snowfall 0.0 0.2  
Since 1 July snowfall 0.0 0.2  
Since 1 September snowfall 0.0 0.2  
Snow Depth 0.00 in    
Sea Level Pressure  
Sea Level Pressure 30.04 in    
Wind  
Wind Speed 5 mph (SSE)    
Max Wind Speed 13 mph    
Max Gust Speed 17 mph    
Visibility 9 miles    
Events Rain    
T = Trace of Precipitation, MM = Missing Value Source: NWS Daily Summary

Daily Weather History Graph

Daily Weather History Graph

Search for Another Location

Airport or City:

Trip Planner

Search our weather history database for the weather conditions in past years. The results will help you decide how hot, cold, wet, or windy it might be!

Date:

Astronomy

Oct. 22, 2012 Rise Set
Actual Time 7:57 AM EDT 6:40 PM EDT
Civil Twilight 7:28 AM EDT 7:09 PM EDT
Nautical Twilight 6:55 AM EDT 7:42 PM EDT
Astronomical Twilight 6:22 AM EDT 8:15 PM EDT
Moon 2:57 PM EDT (10/22) 12:32 AM EDT (10/22)
Length of Visible Light 11h 40m
Length of Day
10h 43m
First Quarter, 56% of the Moon is Illuminated
Oct 22
First Quarter
Oct 29
Full
Nov 6
Last Quarter
Nov 13
New
Nov 20
First Quarter

Hourly Weather History & Observations

Time (EDT) Temp. Windchill Dew Point Humidity Pressure Visibility Wind Dir Wind Speed Gust Speed Precip Events Conditions
12:53 AM 43.0 °F 41.3 °F 37.9 °F 82% 30.10 in 10.0 mi SSE 3.5 mph - N/A   Clear
1:53 AM 39.9 °F - 36.0 °F 86% 30.09 in 10.0 mi Calm Calm - N/A   Clear
2:53 AM 42.1 °F - 39.0 °F 89% 30.09 in 10.0 mi Calm Calm - N/A   Clear
3:53 AM 39.9 °F - 37.9 °F 93% 30.09 in 10.0 mi Calm Calm - N/A   Clear
4:53 AM 39.0 °F - 36.0 °F 89% 30.09 in 10.0 mi Calm Calm - N/A   Clear
5:53 AM 42.1 °F - 39.0 °F 89% 30.08 in 10.0 mi Calm Calm - N/A   Clear
6:53 AM 39.9 °F 37.8 °F 37.9 °F 93% 30.08 in 9.0 mi SSE 3.5 mph - N/A   Clear
8:53 AM 46.0 °F 44.8 °F 43.0 °F 89% 30.09 in 6.0 mi South 3.5 mph - N/A   Clear
9:53 AM 55.0 °F - 48.0 °F 77% 30.08 in 10.0 mi South 3.5 mph - N/A   Clear
10:53 AM 60.1 °F - 48.9 °F 67% 30.08 in 10.0 mi South 4.6 mph - N/A   Clear
11:53 AM 64.9 °F - 51.1 °F 61% 30.07 in 10.0 mi SSE 5.8 mph - N/A   Clear
12:53 PM 69.8 °F - 51.8 °F 53% 30.04 in 10.0 mi SE 5.8 mph - N/A   Clear
1:53 PM 72.0 °F - 54.0 °F 53% 30.02 in 10.0 mi SE 4.6 mph - N/A   Clear
2:53 PM 73.0 °F - 57.0 °F 57% 30.02 in 10.0 mi SSW 13.8 mph 17.3 mph N/A   Overcast
3:53 PM 71.1 °F - 55.9 °F 59% 30.00 in 10.0 mi South 5.8 mph - N/A   Overcast
4:53 PM 70.0 °F - 57.0 °F 63% 29.99 in 10.0 mi SSE 9.2 mph - N/A   Overcast
5:53 PM 68.0 °F - 55.9 °F 65% 29.98 in 10.0 mi SSE 8.1 mph - N/A   Scattered Clouds
6:53 PM 66.9 °F - 55.0 °F 66% 29.99 in 10.0 mi South 4.6 mph - N/A   Overcast
7:53 PM 64.0 °F - 54.0 °F 70% 29.99 in 10.0 mi South 5.8 mph - N/A   Scattered Clouds
9:53 PM 61.0 °F - 55.0 °F 81% 29.97 in 9.0 mi SSE 5.8 mph - 0.00 in Rain Light Rain
10:53 PM 61.0 °F - 55.0 °F 81% 29.97 in 9.0 mi SSE 3.5 mph - 0.01 in Rain Light Rain
11:53 PM 60.1 °F - 57.0 °F 90% 30.00 in 4.0 mi SW 4.6 mph - 0.06 in Rain Light Rain